This is the latest recevied weather packets stored in our database for station/object W8BS. If no packets are shown the sender has not sent any weather packets the latest 10 day(s).
| Time | Temp. | Humidity | Pressure | Rain* | Wind** | Luminosity | Snow |
|---|---|---|---|---|---|---|---|
| 1777830680 | 10° C | 45% | 1016.8 hPa | 0 mm | - | 734 W/m² | - |
| 1777830377 | 10.56° C | 46% | 1016.8 hPa | 0 mm | - | 687 W/m² | - |
| 1777830074 | 10.56° C | 46% | 1017 hPa | 0 mm | - | 688 W/m² | - |
| 1777829769 | 10° C | 45% | 1016.8 hPa | 0 mm | - | 754 W/m² | - |
| 1777829466 | 10.56° C | 46% | 1017 hPa | 0 mm | - | 775 W/m² | - |
| 1777829163 | 10° C | 48% | 1016.9 hPa | 0 mm | - | 496 W/m² | - |
| 1777828860 | 10° C | 46% | 1017 hPa | 0 mm | - | 676 W/m² | - |
| 1777828556 | 10° C | 46% | 1017.4 hPa | 0 mm | - | 656 W/m² | - |
| 1777828254 | 10° C | 47% | 1017.2 hPa | 0 mm | - | 717 W/m² | - |
| 1777827950 | 10.56° C | 46% | 1017.1 hPa | 0 mm | - | 711 W/m² | - |
| 1777827647 | 10° C | 51% | 1017.1 hPa | 0 mm | - | 697 W/m² | - |
| 1777827344 | 8.89° C | 49% | 1017.3 hPa | 0 mm | - | 683 W/m² | - |
| 1777827041 | 10° C | 46% | 1017.3 hPa | 0 mm | - | 692 W/m² | - |
| 1777826738 | 9.44° C | 47% | 1017.3 hPa | 0 mm | - | 704 W/m² | - |
| 1777826435 | 9.44° C | 48% | 1017.6 hPa | 0 mm | - | 688 W/m² | - |
| 1777826132 | 8.89° C | 50% | 1017.5 hPa | 0 mm | - | 668 W/m² | - |
| 1777825829 | 8.89° C | 50% | 1017.5 hPa | 0 mm | - | 710 W/m² | - |
| 1777825526 | 8.89° C | 49% | 1017.7 hPa | 0 mm | - | 144 W/m² | - |
| 1777825224 | 9.44° C | 49% | 1017.8 hPa | 0 mm | - | 719 W/m² | - |
| 1777824920 | 8.89° C | 51% | 1017.8 hPa | 0 mm | - | 681 W/m² | - |
| 1777824616 | 8.89° C | 50% | 1017.7 hPa | 0 mm | - | 724 W/m² | - |
| 1777824314 | 9.44° C | 50% | 1017.8 hPa | 0 mm | - | 722 W/m² | - |
| 1777824009 | 8.33° C | 51% | 1017.7 hPa | 0 mm | - | 707 W/m² | - |
| 1777823706 | 7.78° C | 52% | 1017.9 hPa | 0 mm | - | 664 W/m² | - |
| 1777823403 | 7.78° C | 50% | 1018.1 hPa | 0 mm | - | 719 W/m² | - |
* Rain latest hour (hover to see other rain measurements)
** Current wind speed in m/s (hover to see current wind gust speed)